| time (UTC) | temp F | wind direction | speed MPH | gust MPH | rain 1hr in | rain 24hr in | rain mn in | humidity % | barometer mb |
| 20260903065654 | 49 | 315 | 2.0 | 2.0 | 0.00 | 0.00 | 0.00 | 42 | 5318.5 |
| 20260903065449 | -19 | 315 | 2.0 | 3.0 | 0.00 | 0.00 | 0.00 | 42 | 5318.5 |
| 20260903065046 | 715 | 315 | 3.0 | 3.0 | 0.00 | 0.00 | 0.00 | 43 | 4420.8 |
| 20260903064845 | -42 | 315 | 3.0 | 3.0 | 0.00 | 0.00 | 0.00 | 43 | 5318.5 |
| 20260903064756 | -31 | 315 | 3.0 | 3.0 | 0.00 | 0.00 | 0.00 | 44 | 5318.5 |
| 20260903064642 | -31 | 315 | 3.0 | 3.0 | 0.00 | 0.00 | 0.00 | 44 | 5318.5 |
| 20260903063430 | 216 | 292 | 0.0 | 0.0 | 0.00 | 0.00 | 0.00 | 45 | 403.4 |
| 20260903062824 | 233 | 315 | 2.0 | 3.0 | 0.00 | 0.00 | 0.00 | 43 | 5318.5 |
| 20260903062623 | 327 | 315 | 3.0 | 3.0 | 0.00 | 0.00 | 0.00 | 45 | 5318.5 |
| 20260903062016 | -31 | 326 | 1.0 | 126.0 | 0.00 | 0.00 | 0.00 | 45 | 5318.5 |
| 20260903061913 | 584 | 337 | 126.0 | 126.0 | 0.00 | 0.00 | 0.00 | 45 | 5318.5 |
| 20260903061840 | -90 | 337 | 0.0 | 0.0 | 0.00 | 0.00 | 0.00 | 45 | 5318.5 |
| 20260903061437 | 973 | 337 | 0.0 | 0.0 | 0.00 | 0.00 | 0.00 | 46 | 5318.5 |
| 20260903061238 | 584 | 292 | 0.0 | 0.0 | 0.00 | 0.00 | 0.00 | 45 | 5318.5 |
| 20260903061204 | -90 | 281 | 0.0 | 0.0 | 0.00 | 0.00 | 0.00 | 43 | 531.8 |
| 20260903061159 | -90 | 281 | 0.0 | 0.0 | 0.00 | 0.00 | 0.00 | 43 | 5318.5 |
| 20260903060957 | 32 | 303 | 0.0 | 123.0 | 0.00 | 0.00 | 0.00 | 46 | 4010.3 |
| 20260903060207 | 973 | 337 | 1.0 | 1.0 | 0.00 | 0.00 | 0.00 | 46 | 5318.5 |
| 20260903055225 | 272 | 292 | 2.0 | 2.0 | 0.00 | 0.00 | 0.00 | 45 | 5318.5 |
| 20260903054618 | 714 | 337 | 2.0 | 3.0 | 0.00 | 0.00 | 0.00 | 46 | 4420.7 |
| 20260903053735 | -27 | 292 | 3.0 | 127.0 | 0.00 | 0.00 | 0.00 | 46 | 5318.5 |
| 20260903053534 | 715 | 303 | 3.0 | 127.0 | 0.00 | 0.00 | 0.00 | 47 | 1799.4 |
| 20260903053432 | 715 | 315 | 127.0 | 127.0 | 0.00 | 0.00 | 0.00 | 47 | 1799.3 |
| 20260903053237 | 288 | 315 | 1.0 | 3.0 | 0.00 | 0.00 | 0.00 | 47 | 5318.5 |
| 20260903052831 | 715 | 292 | 4.0 | 126.0 | 0.00 | 0.00 | 0.00 | 46 | 1799.4 |
| 20260903051919 | 288 | 292 | 2.0 | 3.0 | 0.00 | 0.00 | 0.00 | 47 | 5318.5 |
| 20260903050902 | 715 | 292 | 2.0 | 126.0 | 0.00 | 0.00 | 0.00 | 46 | 4420.9 |
| 20260903050620 | 288 | 292 | 2.0 | 4.0 | 0.00 | 0.00 | 0.00 | 47 | 5318.5 |
| 20260903050419 | -27 | 292 | 4.0 | 126.0 | 0.00 | 0.00 | 0.00 | 46 | 4010.3 |
| 20260903050216 | -31 | 292 | 2.0 | 126.0 | 0.00 | 0.00 | 0.00 | 47 | 5318.5 |
| 20260903045715 | -27 | 270 | 1.0 | 126.0 | 0.00 | 0.00 | 0.00 | 47 | 5318.5 |
| 20260903045513 | -31 | 292 | 3.0 | 126.0 | 0.00 | 0.00 | 0.00 | 47 | 5318.5 |
| 20260903045042 | 124 | 292 | 5.0 | 6.0 | 0.00 | 0.00 | 0.00 | 47 | 5318.5 |
| 20260903044840 | 860 | 292 | 6.0 | 6.0 | 0.00 | 0.00 | 0.00 | 47 | 5318.5 |
| 20260903043829 | 290 | 292 | 5.0 | 5.0 | 0.00 | 0.00 | 0.00 | 47 | 5318.5 |
| 20260903043705 | 49 | 292 | 4.0 | 5.0 | 0.00 | 0.00 | 0.00 | 47 | 5318.5 |
| 20260903043627 | 49 | 292 | 4.0 | 5.0 | 0.00 | 0.00 | 0.00 | 47 | 5318.5 |
| 20260903043424 | 715 | 292 | 4.0 | 5.0 | 0.00 | 0.00 | 0.00 | 47 | 4420.6 |
| 20260903043222 | 306 | 270 | 3.0 | 5.0 | 0.00 | 0.00 | 0.00 | 47 | 5320.2 |
| 20260903043021 | -25 | 292 | 3.0 | 5.0 | 0.00 | 0.00 | 0.00 | 47 | 5318.5 |
| 20260903042212 | 715 | 270 | 3.0 | 3.0 | 0.00 | 0.00 | 0.00 | 47 | 4420.8 |
| 20260903042015 | -18 | 292 | 1.0 | 2.0 | 0.00 | 0.00 | 0.00 | 47 | 5318.5 |
| 20260903041403 | -31 | 337 | 1.0 | 3.0 | 0.00 | 0.00 | 0.00 | 47 | 5318.5 |
| 20260903040959 | 715 | 292 | 3.0 | 4.0 | 0.00 | 0.00 | 0.00 | 47 | 1799.4 |
| 20260903040354 | 715 | 270 | 3.0 | 4.0 | 0.00 | 0.00 | 0.00 | 46 | 1799.4 |
| 20260903040153 | -31 | 292 | 2.0 | 4.0 | 0.00 | 0.00 | 0.00 | 46 | 5318.5 |
| 20260903034536 | -31 | 270 | 3.0 | 3.0 | 0.00 | 0.00 | 0.00 | 46 | 5318.5 |
| 20260903034333 | -20 | 270 | 1.0 | 3.0 | 0.00 | 0.00 | 0.00 | 45 | 5318.5 |
| 20260903034130 | -31 | 270 | 2.0 | 3.0 | 0.00 | 0.00 | 0.00 | 45 | 5318.5 |
| 20260903033928 | 715 | 292 | 1.0 | 3.0 | 0.00 | 0.00 | 0.00 | 45 | 1799.4 |
| 20260903033323 | -13 | 337 | 1.0 | 3.0 | 0.00 | 0.00 | 0.00 | 45 | 4010.3 |
| 20260903033120 | -42 | 337 | 2.0 | 3.0 | 0.00 | 0.00 | 0.00 | 45 | 5318.5 |
| 20260903032312 | 676 | 292 | 2.0 | 3.0 | 0.00 | 0.00 | 0.00 | 45 | 5318.5 |
| 20260903031905 | 715 | 292 | 3.0 | 4.0 | 0.00 | 0.00 | 0.00 | 45 | 1799.3 |
| 20260903031705 | 203 | 292 | 4.0 | 4.0 | 0.00 | 0.00 | 0.00 | 44 | 5318.5 |
| 20260903030854 | 313 | 292 | 3.0 | 6.0 | 0.00 | 0.00 | 0.00 | 44 | 5318.5 |
| 20260903030452 | 715 | 303 | 2.0 | 3.0 | 0.00 | 0.00 | 0.00 | 43 | 1799.4 |
| 20260903030047 | -23 | 292 | 2.0 | 6.0 | 0.00 | 0.00 | 0.00 | 42 | 5318.5 |
| 20260903025442 | -21 | 270 | 1.0 | 4.0 | 0.00 | 0.00 | 0.00 | 41 | 5318.5 |
| 20260903025239 | 715 | 270 | 4.0 | 4.0 | 0.00 | 0.00 | 0.00 | 41 | 1799.4 |
| 20260903025039 | -15 | 292 | 2.0 | 4.0 | 0.00 | 0.00 | 0.00 | 41 | 5318.5 |
| 20260903024431 | -10 | 270 | 2.0 | 4.0 | 0.00 | 0.00 | 0.00 | 40 | 5318.5 |
| 20260903024027 | 446 | 270 | 2.0 | 3.0 | 0.00 | 0.00 | 0.00 | 40 | 5318.5 |
| 20260903023825 | 138 | 270 | 2.0 | 2.0 | 0.00 | 0.00 | 0.00 | 40 | 5318.5 |
| 20260903023218 | 155 | 315 | 1.0 | 1.0 | 0.00 | 0.00 | 0.00 | 40 | 5318.5 |
| 20260903022814 | 210 | 292 | 0.0 | 2.0 | 0.00 | 0.00 | 0.00 | 40 | 5318.5 |
| 20260903022611 | 304 | 292 | 0.0 | 2.0 | 0.00 | 0.00 | 0.00 | 40 | 5318.5 |
| 20260903022208 | 715 | 292 | 1.0 | 3.0 | 0.00 | 0.00 | 0.00 | 39 | 1799.4 |
| 20260903021805 | -24 | 292 | 3.0 | 3.0 | 0.00 | 0.00 | 0.00 | 39 | 5318.5 |
| 20260903014933 | 145 | 292 | 1.0 | 3.0 | 0.00 | 0.00 | 0.00 | 39 | 5318.5 |
| 20260903014530 | 201 | 292 | 1.0 | 3.0 | 0.00 | 0.00 | 0.00 | 39 | 5318.5 |
| 20260903014330 | 295 | 303 | 2.0 | 5.0 | 0.00 | 0.00 | 0.00 | 39 | 5318.5 |
| 20260903013924 | -30 | 292 | 3.0 | 4.0 | 0.00 | 0.00 | 0.00 | 39 | 5318.5 |
| 20260903013721 | 311 | 292 | 2.0 | 2.0 | 0.00 | 0.00 | 0.00 | 39 | 5318.5 |
| 20260903013116 | -19 | 292 | 1.0 | 5.0 | 0.00 | 0.00 | 0.00 | 38 | 5318.5 |
| 20260903012913 | -23 | 292 | 2.0 | 5.0 | 0.00 | 0.00 | 0.00 | 39 | 5318.5 |
| 20260903012307 | -84 | 292 | 4.0 | 4.0 | 0.00 | 0.00 | 0.00 | 39 | 5318.5 |
| 20260903012106 | -12 | 292 | 4.0 | 6.0 | 0.00 | 0.00 | 0.00 | 39 | 5318.5 |
| 20260903011902 | -29 | 292 | 5.0 | 6.0 | 0.00 | 0.00 | 0.00 | 39 | 1714.1 |
| 20260903011459 | 262 | 292 | 4.0 | 6.0 | 0.00 | 0.00 | 0.00 | 38 | 5318.5 |
| 20260903011057 | 814 | 292 | 5.0 | 5.0 | 0.00 | 0.00 | 0.00 | 38 | 5318.5 |
| 20260903010852 | 175 | 292 | 4.0 | 5.0 | 0.00 | 0.00 | 0.00 | 38 | 5318.5 |
| 20260903010246 | 191 | 292 | 4.0 | 5.0 | 0.00 | 0.00 | 0.00 | 38 | 5318.5 |
| 20260903005641 | 715 | 292 | 4.0 | 5.0 | 0.00 | 0.00 | 0.00 | 37 | 4420.8 |
| 20260903005439 | 302 | 292 | 4.0 | 4.0 | 0.00 | 0.00 | 0.00 | 37 | 5318.5 |
| 20260903003821 | -13 | 337 | 4.0 | 4.0 | 0.00 | 0.00 | 0.00 | 36 | 5318.5 |
| 20260903003013 | 715 | 315 | 4.0 | 5.0 | 0.00 | 0.00 | 0.00 | 36 | 1799.4 |
| 20260903002812 | 722 | 303 | 4.0 | 5.0 | 0.00 | 0.00 | 0.00 | 36 | 5318.5 |
| 20260903002205 | 207 | 337 | 3.0 | 5.0 | 0.00 | 0.00 | 0.00 | 36 | 5318.5 |
| 20260903001757 | 262 | 292 | 4.0 | 4.0 | 0.00 | 0.00 | 0.00 | 36 | 403.3 |
| 20260903001557 | 224 | 292 | 3.0 | 4.0 | 0.00 | 0.00 | 0.00 | 36 | 5318.5 |
| 20260903000950 | -28 | 292 | 4.0 | 5.0 | 0.00 | 0.00 | 0.00 | 36 | 5318.5 |
| 20260903000344 | -26 | 337 | 3.0 | 4.0 | 0.00 | 0.00 | 0.00 | 36 | 5318.5 |
| 20260902234929 | -60 | 292 | 4.0 | 6.0 | 0.00 | 0.00 | 0.00 | 36 | 5318.5 |
| 20260902234524 | 492 | 292 | 5.0 | 7.0 | 0.00 | 0.00 | 0.00 | 36 | 1714.1 |
| 20260902233919 | 198 | 292 | 6.0 | 7.0 | 0.00 | 0.00 | 0.00 | 36 | 5318.5 |
| 20260902233515 | 253 | 337 | 5.0 | 7.0 | 0.00 | 0.00 | 0.00 | 35 | 5318.5 |
| 20260902233316 | 214 | 292 | 6.0 | 7.0 | 0.00 | 0.00 | 0.00 | 35 | 5318.5 |
| 20260902232909 | 270 | 292 | 6.0 | 7.0 | 0.00 | 0.00 | 0.00 | 35 | 5318.5 |
| 20260902232706 | -29 | 292 | 7.0 | 7.0 | 0.00 | 0.00 | 0.00 | 36 | 5318.5 |
| 20260902231655 | -21 | 315 | 6.0 | 6.0 | 0.00 | 0.00 | 0.00 | 35 | 5318.5 |
| 20260902231453 | 715 | 292 | 4.0 | 6.0 | 0.00 | 0.00 | 0.00 | 35 | 1799.3 |
| 20260902230847 | -10 | 292 | 6.0 | 6.0 | 0.00 | 0.00 | 0.00 | 35 | 5318.5 |
| 20260902230646 | -15 | 315 | 6.0 | 6.0 | 0.00 | 0.00 | 0.00 | 35 | 5318.5 |
| 20260902230444 | 715 | 292 | 5.0 | 6.0 | 0.00 | 0.00 | 0.00 | 34 | 4420.8 |
| 20260902230042 | -31 | 292 | 5.0 | 6.0 | 0.00 | 0.00 | 0.00 | 35 | 5318.5 |
| 20260902225840 | 952 | 292 | 5.0 | 6.0 | 0.00 | 0.00 | 0.00 | 35 | 5318.5 |
| 20260902224828 | 299 | 292 | 5.0 | 6.0 | 0.00 | 0.00 | 0.00 | 35 | 5318.5 |
| 20260902224021 | -24 | 315 | 5.0 | 5.0 | 0.00 | 0.00 | 0.00 | 34 | 4010.3 |
| 20260902222401 | -24 | 337 | 4.0 | 4.0 | 0.00 | 0.00 | 0.00 | 33 | 5318.5 |
| 20260902221354 | 715 | 337 | 4.0 | 4.0 | 0.00 | 0.00 | 0.00 | 33 | 1799.4 |
| 20260902215941 | 306 | 292 | 1.0 | 1.0 | 0.00 | 0.00 | 0.00 | 32 | 5318.5 |
| 20260902215739 | -25 | 292 | 0.0 | 3.0 | 0.00 | 0.00 | 0.00 | 32 | 5318.5 |
| 20260902214924 | -15 | 292 | 3.0 | 4.0 | 0.00 | 0.00 | 0.00 | 32 | 5318.5 |
| 20260902213311 | 630 | 292 | 1.0 | 2.0 | 0.00 | 0.00 | 0.00 | 31 | 5318.5 |
| 20260902212702 | -31 | 270 | 1.0 | 1.0 | 0.00 | 0.00 | 0.00 | 31 | 5318.5 |
| 20260902211853 | 322 | 315 | 1.0 | 3.0 | 0.00 | 0.00 | 0.00 | 31 | 5318.5 |
| 20260902210842 | -26 | 315 | 3.0 | 5.0 | 0.00 | 0.00 | 0.00 | 31 | 5318.5 |
| 20260902210640 | -16 | 292 | 4.0 | 5.0 | 0.00 | 0.00 | 0.00 | 31 | 5318.5 |
| 20260902210438 | -20 | 270 | 4.0 | 4.0 | 0.00 | 0.00 | 0.00 | 30 | 5318.5 |
| 20260902210235 | -11 | 315 | 2.0 | 5.0 | 0.00 | 0.00 | 0.00 | 31 | 5318.5 |
| 20260902210034 | -15 | 303 | 3.0 | 5.0 | 0.00 | 0.00 | 0.00 | 31 | 5318.5 |
| 20260902205831 | 715 | 270 | 5.0 | 5.0 | 0.00 | 0.00 | 0.00 | 30 | 4420.8 |
| 20260902205427 | 714 | 315 | 4.0 | 5.0 | 0.00 | 0.00 | 0.00 | 29 | 4420.7 |
| 20260902205225 | 927 | 315 | 3.0 | 9.0 | 0.00 | 0.00 | 0.00 | 29 | 5318.5 |
| 20260902204821 | 147 | 315 | 8.0 | 9.0 | 0.00 | 0.00 | 0.00 | 27 | 5318.5 |
| 20260902204417 | 203 | 315 | 0.0 | 3.0 | 0.00 | 0.00 | 0.00 | 27 | 5318.5 |
| 20260902204013 | 258 | 270 | 2.0 | 4.0 | 0.00 | 0.00 | 0.00 | 28 | 5318.5 |
| 20260902203611 | 714 | 270 | 2.0 | 3.0 | 0.00 | 0.00 | 0.00 | 27 | 4420.9 |
| 20260902203407 | 274 | 270 | 1.0 | 3.0 | 0.00 | 0.00 | 0.00 | 27 | 5318.5 |
| 20260902203204 | -28 | 292 | 3.0 | 3.0 | 0.00 | 0.00 | 0.00 | 27 | 5318.5 |
| 20260902203003 | 715 | 292 | 3.0 | 4.0 | 0.00 | 0.00 | 0.00 | 27 | 1799.4 |
| 20260902202840 | -23 | 337 | 4.0 | 4.0 | 0.00 | 0.00 | 0.00 | 27 | 5318.5 |
| 20260902202801 | -23 | 337 | 4.0 | 4.0 | 0.00 | 0.00 | 0.00 | 27 | 5318.5 |
| 20260902202558 | -27 | 292 | 3.0 | 3.0 | 0.00 | 0.00 | 0.00 | 26 | 5318.5 |
| 20260902202356 | -17 | 292 | 3.0 | 3.0 | 0.00 | 0.00 | 0.00 | 26 | 5318.5 |
| 20260902202154 | -21 | 292 | 3.0 | 4.0 | 0.00 | 0.00 | 0.00 | 27 | 5318.5 |
| 20260902201953 | -12 | 292 | 3.0 | 4.0 | 0.00 | 0.00 | 0.00 | 26 | 5318.5 |
| 20260902201750 | -31 | 292 | 3.0 | 3.0 | 0.00 | 0.00 | 0.00 | 27 | 5318.5 |
| 20260902201551 | -65 | 292 | 1.0 | 3.0 | 0.00 | 0.00 | 0.00 | 26 | 5318.5 |
| 20260902201348 | 715 | 292 | 3.0 | 3.0 | 0.00 | 0.00 | 0.00 | 26 | 1799.4 |
| 20260902200740 | -31 | 292 | 0.0 | 2.0 | 0.00 | 0.00 | 0.00 | 27 | 5318.5 |
| 20260902200540 | 714 | 292 | 1.0 | 3.0 | 0.00 | 0.00 | 0.00 | 26 | 4420.7 |
| 20260902200336 | 715 | 292 | 2.0 | 4.0 | 0.00 | 0.00 | 0.00 | 26 | 1799.3 |
| 20260902200134 | 193 | 292 | 3.0 | 4.0 | 0.00 | 0.00 | 0.00 | 26 | 5318.5 |
| 20260902195932 | 714 | 292 | 4.0 | 4.0 | 0.00 | 0.00 | 0.00 | 25 | 4420.8 |
| 20260902194922 | -29 | 270 | 1.0 | 3.0 | 0.00 | 0.00 | 0.00 | 26 | 5318.5 |
| 20260902194719 | 320 | 270 | 2.0 | 3.0 | 0.00 | 0.00 | 0.00 | 25 | 5318.5 |
| 20260902194316 | -27 | 270 | 2.0 | 3.0 | 0.00 | 0.00 | 0.00 | 25 | 5318.5 |
| 20260902193911 | 715 | 270 | 2.0 | 2.0 | 0.00 | 0.00 | 0.00 | 25 | 1799.1 |
| 20260902193708 | -13 | 270 | 1.0 | 2.0 | 0.00 | 0.00 | 0.00 | 25 | 5318.5 |
| 20260902193307 | -75 | 337 | 1.0 | 2.0 | 0.00 | 0.00 | 0.00 | 25 | 5318.5 |
| 20260902192901 | -19 | 292 | 2.0 | 2.0 | 0.00 | 0.00 | 0.00 | 24 | 5318.5 |
| 20260902192658 | 743 | 292 | 1.0 | 3.0 | 0.00 | 0.00 | 0.00 | 24 | 5318.5 |
| 20260902192052 | 906 | 270 | 2.0 | 3.0 | 0.00 | 0.00 | 0.00 | 23 | 5318.5 |
| 20260902191851 | 184 | 292 | 3.0 | 3.0 | 0.00 | 0.00 | 0.00 | 23 | 5318.5 |
| 20260902191648 | 145 | 337 | 3.0 | 3.0 | 0.00 | 0.00 | 0.00 | 24 | 5318.5 |
| 20260902191446 | 239 | 337 | 2.0 | 3.0 | 0.00 | 0.00 | 0.00 | 23 | 5318.5 |
| 20260902191045 | 714 | 337 | 1.0 | 3.0 | 0.00 | 0.00 | 0.00 | 23 | 4420.7 |
| 20260902190840 | 256 | 270 | 2.0 | 2.0 | 0.00 | 0.00 | 0.00 | 23 | 5318.5 |
| 20260902190235 | -24 | 292 | 1.0 | 3.0 | 0.00 | 0.00 | 0.00 | 23 | 5318.5 |
| 20260902190032 | -28 | 270 | 2.0 | 3.0 | 0.00 | 0.00 | 0.00 | 22 | 5318.5 |
| 20260902185830 | 715 | 270 | 1.0 | 3.0 | 0.00 | 0.00 | 0.00 | 22 | 1799.4 |
| 20260902185425 | -13 | 270 | 1.0 | 3.0 | 0.00 | 0.00 | 0.00 | 22 | 5318.5 |
| 20260902185223 | -17 | 270 | 2.0 | 3.0 | 0.00 | 0.00 | 0.00 | 22 | 5318.5 |
| 20260902184618 | -29 | 270 | 1.0 | 2.0 | 0.00 | 0.00 | 0.00 | 21 | 403.3 |
| 20260902184415 | -67 | 270 | 1.0 | 2.0 | 0.00 | 0.00 | 0.00 | 21 | 5318.5 |
| 20260902184213 | 262 | 292 | 2.0 | 3.0 | 0.00 | 0.00 | 0.00 | 21 | 5318.5 |
| 20260902183404 | 136 | 303 | 1.0 | 2.0 | 0.00 | 0.00 | 0.00 | 21 | 5318.5 |
| 20260902183202 | 230 | 337 | 1.0 | 3.0 | 0.00 | 0.00 | 0.00 | 21 | 5318.5 |
| 20260902182759 | 715 | 270 | 0.0 | 3.0 | 0.00 | 0.00 | 0.00 | 21 | 4420.8 |
| 20260902182557 | 247 | 270 | 1.0 | 3.0 | 0.00 | 0.00 | 0.00 | 20 | 5318.5 |
| 20260902182354 | -31 | 270 | 1.0 | 2.0 | 0.00 | 0.00 | 0.00 | 20 | 5318.5 |
| 20260902182152 | 715 | 270 | 1.0 | 4.0 | 0.00 | 0.00 | 0.00 | 20 | 1799.3 |
| 20260902181950 | -25 | 270 | 2.0 | 4.0 | 0.00 | 0.00 | 0.00 | 20 | 5318.5 |
| 20260902181748 | 49 | 270 | 1.0 | 2.0 | 0.00 | 0.00 | 0.00 | 20 | 5318.5 |
| 20260902181547 | -20 | 270 | 1.0 | 2.0 | 0.00 | 0.00 | 0.00 | 20 | 5318.5 |
| 20260902181344 | -24 | 270 | 2.0 | 4.0 | 0.00 | 0.00 | 0.00 | 20 | 5318.5 |
| 20260902181146 | -14 | 270 | 3.0 | 4.0 | 0.00 | 0.00 | 0.00 | 20 | 5318.5 |
| 20260902180940 | -18 | 270 | 2.0 | 2.0 | 0.00 | 0.00 | 0.00 | 19 | 5318.5 |
| 20260902180738 | -93 | 270 | 1.0 | 2.0 | 0.00 | 0.00 | 0.00 | 18 | 5318.5 |
| 20260902180334 | -31 | 270 | 1.0 | 4.0 | 0.00 | 0.00 | 0.00 | 18 | 5318.5 |
| 20260902175929 | -31 | 270 | 3.0 | 5.0 | 0.00 | 0.00 | 0.00 | 18 | 5318.5 |
| 20260902175728 | 111 | 270 | 4.0 | 5.0 | 0.00 | 0.00 | 0.00 | 18 | 5318.5 |
| 20260902175525 | 722 | 270 | 3.0 | 4.0 | 0.00 | 0.00 | 0.00 | 18 | 5318.5 |
| 20260902174919 | 715 | 270 | 2.0 | 5.0 | 0.00 | 0.00 | 0.00 | 18 | 1799.3 |
| 20260902174717 | 182 | 270 | 3.0 | 6.0 | 0.00 | 0.00 | 0.00 | 17 | 5318.5 |
| 20260902174525 | 715 | 292 | 2.0 | 6.0 | 0.00 | 0.00 | 0.00 | 18 | 1799.3 |
| 20260902173908 | 293 | 270 | 4.0 | 5.0 | 0.00 | 0.00 | 0.00 | 17 | 5318.5 |
| 20260902173507 | 715 | 270 | 3.0 | 4.0 | 0.00 | 0.00 | 0.00 | 17 | 4420.8 |
| 20260902172050 | 715 | 270 | 2.0 | 4.0 | 0.00 | 0.00 | 0.00 | 16 | 1799.3 |
| 20260902171444 | 101 | 270 | 2.0 | 3.0 | 0.00 | 0.00 | 0.00 | 16 | 5318.5 |
| 20260902171252 | 715 | 270 | 2.0 | 3.0 | 0.00 | 0.00 | 0.00 | 15 | 1799.4 |
| 20260902171040 | 157 | 270 | 1.0 | 4.0 | 0.00 | 0.00 | 0.00 | 14 | 5318.5 |
| 20260902170838 | 118 | 270 | 2.0 | 4.0 | 0.00 | 0.00 | 0.00 | 14 | 5318.5 |
| 20260902170433 | -31 | 270 | 1.0 | 4.0 | 0.00 | 0.00 | 0.00 | 14 | 5318.5 |
| 20260902170307 | 267 | 270 | 3.0 | 4.0 | 0.00 | 0.00 | 0.00 | 14 | 5318.5 |
| 20260902165827 | 715 | 270 | 3.0 | 6.0 | 0.00 | 0.00 | 0.00 | 13 | 1799.4 |
| 20260902165221 | 715 | 270 | 2.0 | 3.0 | 0.00 | 0.00 | 0.00 | 13 | 4420.6 |
| 20260902165020 | -22 | 270 | 2.0 | 5.0 | 0.00 | 0.00 | 0.00 | 13 | 5318.5 |
| 20260902164615 | -16 | 270 | 4.0 | 7.0 | 0.00 | 0.00 | 0.00 | 14 | 5318.5 |
| 20260902164414 | -20 | 270 | 3.0 | 7.0 | 0.00 | 0.00 | 0.00 | 13 | 5318.5 |
| 20260902164210 | 715 | 270 | 4.0 | 5.0 | 0.00 | 0.00 | 0.00 | 13 | 1799.4 |
| 20260902164009 | -15 | 270 | 5.0 | 7.0 | 0.00 | 0.00 | 0.00 | 13 | 5318.5 |
| 20260902163806 | -56 | 270 | 3.0 | 7.0 | 0.00 | 0.00 | 0.00 | 12 | 5318.5 |
| 20260902163608 | -95 | 270 | 2.0 | 6.0 | 0.00 | 0.00 | 0.00 | 12 | 403.4 |
| 20260902163402 | -14 | 315 | 6.0 | 9.0 | 0.00 | 0.00 | 0.00 | 13 | 5318.5 |
| 20260902163200 | 927 | 281 | 5.0 | 9.0 | 0.00 | 0.00 | 0.00 | 12 | 5318.5 |
| 20260902162959 | 538 | 315 | 8.0 | 10.0 | 0.00 | 0.00 | 0.00 | 13 | 5318.5 |
| 20260902162756 | 147 | 315 | 3.0 | 10.0 | 0.00 | 0.00 | 0.00 | 12 | 5318.5 |
| 20260902162352 | 203 | 270 | 7.0 | 10.0 | 0.00 | 0.00 | 0.00 | 13 | 5318.5 |
| 20260902161948 | 258 | 270 | 6.0 | 10.0 | 0.00 | 0.00 | 0.00 | 13 | 5318.5 |
| 20260902161544 | 313 | 270 | 8.0 | 9.0 | 0.00 | 0.00 | 0.00 | 13 | 5318.5 |
| 20260902161341 | 715 | 315 | 8.0 | 8.0 | 0.00 | 0.00 | 0.00 | 12 | 4420.8 |
| 20260902160940 | -32 | 315 | 4.0 | 9.0 | 0.00 | 0.00 | 0.00 | 12 | 5318.5 |
| 20260902160735 | 715 | 292 | 7.0 | 12.0 | 0.00 | 0.00 | 0.00 | 12 | 1799.4 |
| 20260902160534 | -27 | 315 | 8.0 | 12.0 | 0.00 | 0.00 | 0.00 | 12 | 5318.5 |
| 20260902155927 | -12 | 315 | 7.0 | 9.0 | 0.00 | 0.00 | 0.00 | 12 | 5318.5 |
| 20260902155524 | -65 | 292 | 9.0 | 10.0 | 0.00 | 0.00 | 0.00 | 12 | 5318.5 |
| 20260902155322 | -10 | 315 | 5.0 | 10.0 | 0.00 | 0.00 | 0.00 | 13 | 5318.5 |
| 20260902155119 | -10 | 315 | 8.0 | 10.0 | 0.00 | 0.00 | 0.00 | 12 | 5318.5 |
| 20260902154917 | 835 | 315 | 10.0 | 11.0 | 0.00 | 0.00 | 0.00 | 13 | 5318.5 |
| 20260902154715 | 446 | 315 | 6.0 | 11.0 | 0.00 | 0.00 | 0.00 | 12 | 5318.5 |
| 20260902153906 | 155 | 315 | 8.0 | 12.0 | 0.00 | 0.00 | 0.00 | 12 | 5318.5 |
| 20260902153704 | 249 | 315 | 10.0 | 12.0 | 0.00 | 0.00 | 0.00 | 13 | 5318.5 |
| 20260902153503 | 210 | 315 | 10.0 | 12.0 | 0.00 | 0.00 | 0.00 | 12 | 5318.5 |
| 20260902153102 | 265 | 315 | 7.0 | 10.0 | 0.00 | 0.00 | 0.00 | 13 | 5318.5 |
| 20260902152856 | -29 | 315 | 6.0 | 10.0 | 0.00 | 0.00 | 0.00 | 13 | 5318.5 |
| 20260902152654 | 320 | 315 | 9.0 | 10.0 | 0.00 | 0.00 | 0.00 | 13 | 5318.5 |
| 20260902152453 | -24 | 315 | 5.0 | 10.0 | 0.00 | 0.00 | 0.00 | 13 | 5318.5 |
| 20260902152048 | 49 | 315 | 8.0 | 10.0 | 0.00 | 0.00 | 0.00 | 13 | 5318.5 |
| 20260902151846 | 715 | 315 | 10.0 | 11.0 | 0.00 | 0.00 | 0.00 | 13 | 1799.3 |
| 20260902151037 | -11 | 303 | 9.0 | 11.0 | 0.00 | 0.00 | 0.00 | 13 | 5318.5 |
| 20260902150835 | -19 | 315 | 9.0 | 11.0 | 0.00 | 0.00 | 0.00 | 13 | 5318.5 |
| 20260902150633 | 743 | 303 | 8.0 | 11.0 | 0.00 | 0.00 | 0.00 | 13 | 5318.5 |
| 20260902150432 | 354 | 292 | 7.0 | 11.0 | 0.00 | 0.00 | 0.00 | 13 | 5318.5 |
| 20260902150027 | 906 | 315 | 7.0 | 9.0 | 0.00 | 0.00 | 0.00 | 14 | 5318.5 |
| 20260902145825 | 715 | 270 | 5.0 | 8.0 | 0.00 | 0.00 | 0.00 | 14 | 4420.8 |
| 20260902145623 | 715 | 270 | 7.0 | 7.0 | 0.00 | 0.00 | 0.00 | 14 | 1799.4 |
| 20260902145422 | 239 | 281 | 3.0 | 7.0 | 0.00 | 0.00 | 0.00 | 15 | 5318.5 |
| 20260902145017 | 295 | 270 | 2.0 | 9.0 | 0.00 | 0.00 | 0.00 | 15 | 5318.5 |
| 20260902144815 | 715 | 270 | 7.0 | 9.0 | 0.00 | 0.00 | 0.00 | 16 | 1799.4 |
| 20260902144411 | 311 | 270 | 9.0 | 9.0 | 0.00 | 0.00 | 0.00 | 15 | 5318.5 |
| 20260902144208 | 715 | 315 | 8.0 | 8.0 | 0.00 | 0.00 | 0.00 | 16 | 4420.8 |
| 20260902143401 | 715 | 315 | 6.0 | 13.0 | 0.00 | 0.00 | 0.00 | 16 | 1799.4 |
| 20260902142755 | -12 | 292 | 8.0 | 8.0 | 0.00 | 0.00 | 0.00 | 16 | 5318.5 |
| 20260902142350 | -67 | 270 | 4.0 | 9.0 | 0.00 | 0.00 | 0.00 | 16 | 5318.5 |
| 20260902141943 | 715 | 315 | 9.0 | 9.0 | 0.00 | 0.00 | 0.00 | 16 | 4420.8 |
| 20260902141539 | 32 | 270 | 6.0 | 9.0 | 0.00 | 0.00 | 0.00 | 16 | 5318.5 |
| 20260902141337 | 122 | 270 | 6.0 | 9.0 | 0.00 | 0.00 | 0.00 | 16 | 5318.5 |
| 20260902140528 | 233 | 315 | 10.0 | 11.0 | 0.00 | 0.00 | 0.00 | 16 | 5318.5 |
| 20260902140327 | 327 | 270 | 10.0 | 11.0 | 0.00 | 0.00 | 0.00 | 16 | 5318.5 |
| 20260902140124 | 288 | 292 | 5.0 | 9.0 | 0.00 | 0.00 | 0.00 | 16 | 5318.5 |
| 20260902135922 | -27 | 315 | 6.0 | 9.0 | 0.00 | 0.00 | 0.00 | 17 | 5318.5 |
| 20260902135720 | -31 | 315 | 7.0 | 13.0 | 0.00 | 0.00 | 0.00 | 16 | 5318.5 |
| 20260902135318 | -25 | 315 | 5.0 | 8.0 | 0.00 | 0.00 | 0.00 | 16 | 5318.5 |
| 20260902135114 | 715 | 0 | 6.0 | 8.0 | 0.00 | 0.00 | 0.00 | 17 | 4420.8 |
| 20260902134911 | -20 | 315 | 8.0 | 10.0 | 0.00 | 0.00 | 0.00 | 16 | 5318.5 |
| 20260902134709 | -10 | 292 | 5.0 | 10.0 | 0.00 | 0.00 | 0.00 | 17 | 403.4 |
| 20260902134508 | 715 | 315 | 6.0 | 8.0 | 0.00 | 0.00 | 0.00 | 18 | 1799.3 |
| 20260902134308 | -52 | 292 | 4.0 | 5.0 | 0.00 | 0.00 | 0.00 | 18 | 5318.5 |
| 20260902134103 | -90 | 270 | 1.0 | 4.0 | 0.00 | 0.00 | 0.00 | 18 | 5318.5 |
| 20260902133901 | 32 | 315 | 2.0 | 4.0 | 0.00 | 0.00 | 0.00 | 18 | 5318.5 |
| 20260902133457 | 584 | 315 | 3.0 | 9.0 | 0.00 | 0.00 | 0.00 | 18 | 5318.5 |
| 20260902132851 | 207 | 315 | 6.0 | 9.0 | 0.00 | 0.00 | 0.00 | 19 | 5318.5 |
| 20260902132649 | 168 | 315 | 4.0 | 9.0 | 0.00 | 0.00 | 0.00 | 19 | 5318.5 |
| 20260902132447 | -31 | 315 | 5.0 | 10.0 | 0.00 | 0.00 | 0.00 | 18 | 5318.5 |
| 20260902132044 | 318 | 315 | 8.0 | 8.0 | 0.00 | 0.00 | 0.00 | 20 | 5318.5 |
| 20260902131240 | -22 | 270 | 7.0 | 9.0 | 0.00 | 0.00 | 0.00 | 21 | 5318.5 |
| 20260902131032 | -26 | 315 | 7.0 | 7.0 | 0.00 | 0.00 | 0.00 | 21 | 5318.5 |
| 20260902130830 | -17 | 270 | 2.0 | 7.0 | 0.00 | 0.00 | 0.00 | 22 | 5318.5 |
| 20260902130628 | 715 | 270 | 1.0 | 9.0 | 0.00 | 0.00 | 0.00 | 22 | 1799.4 |
| 20260902130023 | -61 | 315 | 5.0 | 8.0 | 0.00 | 0.00 | 0.00 | 22 | 5318.5 |
| 20260902125823 | -10 | 315 | 6.0 | 9.0 | 0.00 | 0.00 | 0.00 | 22 | 5318.5 |
| 20260902125618 | -60 | 315 | 7.0 | 9.0 | 0.00 | 0.00 | 0.00 | 23 | 5318.5 |
| 20260902125214 | 492 | 315 | 7.0 | 10.0 | 0.00 | 0.00 | 0.00 | 22 | 5318.5 |
| 20260902124607 | 715 | 292 | 9.0 | 9.0 | 0.00 | 0.00 | 0.00 | 23 | 1799.3 |
| 20260902123357 | -29 | 303 | 7.0 | 7.0 | 0.00 | 0.00 | 0.00 | 23 | 5318.5 |
| 20260902122749 | -27 | 0 | 3.0 | 8.0 | 0.00 | 0.00 | 0.00 | 23 | 5318.5 |
| 20260902122344 | -21 | 315 | 8.0 | 9.0 | 0.00 | 0.00 | 0.00 | 23 | 5318.5 |
| 20260902122143 | -12 | 270 | 9.0 | 9.0 | 0.00 | 0.00 | 0.00 | 24 | 5318.5 |
| 20260902121940 | -16 | 315 | 6.0 | 9.0 | 0.00 | 0.00 | 0.00 | 23 | 5318.5 |
| 20260902121738 | -70 | 315 | 8.0 | 9.0 | 0.00 | 0.00 | 0.00 | 23 | 5318.5 |
| 20260902121536 | -10 | 337 | 2.0 | 5.0 | 0.00 | 0.00 | 0.00 | 23 | 5318.5 |
| 20260902121334 | -15 | 292 | 1.0 | 5.0 | 0.00 | 0.00 | 0.00 | 24 | 5318.5 |
| 20260902121133 | 789 | 315 | 4.0 | 9.0 | 0.00 | 0.00 | 0.00 | 24 | 5318.5 |
| 20260902120728 | 715 | 292 | 7.0 | 8.0 | 0.00 | 0.00 | 0.00 | 25 | 4420.6 |
| 20260902120526 | 952 | 315 | 5.0 | 5.0 | 0.00 | 0.00 | 0.00 | 24 | 5318.5 |
| 20260902120324 | 189 | 270 | 1.0 | 9.0 | 0.00 | 0.00 | 0.00 | 23 | 5320.2 |
| 20260902120126 | 150 | 315 | 8.0 | 9.0 | 0.00 | 0.00 | 0.00 | 25 | 5318.5 |
| 20260902115920 | 244 | 292 | 6.0 | 9.0 | 0.00 | 0.00 | 0.00 | 24 | 5318.5 |
| 20260902115718 | 32 | 292 | 3.0 | 9.0 | 0.00 | 0.00 | 0.00 | 24 | 5318.5 |
| 20260902115313 | 715 | 315 | 9.0 | 9.0 | 0.00 | 0.00 | 0.00 | 24 | 1799.4 |
| 20260902115112 | -30 | 315 | 3.0 | 6.0 | 0.00 | 0.00 | 0.00 | 25 | 5318.5 |
| 20260902114909 | 316 | 315 | 5.0 | 6.0 | 0.00 | 0.00 | 0.00 | 25 | 5318.5 |
| 20260902114707 | -24 | 292 | 3.0 | 6.0 | 0.00 | 0.00 | 0.00 | 26 | 5318.5 |
| 20260902114303 | -19 | 315 | 3.0 | 7.0 | 0.00 | 0.00 | 0.00 | 25 | 5318.5 |
| 20260902113859 | -13 | 303 | 5.0 | 8.0 | 0.00 | 0.00 | 0.00 | 25 | 5318.5 |
| 20260902113657 | -31 | 326 | 4.0 | 8.0 | 0.00 | 0.00 | 0.00 | 25 | 5318.5 |
| 20260902113253 | -11 | 315 | 1.0 | 9.0 | 0.00 | 0.00 | 0.00 | 25 | 5318.5 |
| 20260902112849 | 697 | 315 | 7.0 | 7.0 | 0.00 | 0.00 | 0.00 | 25 | 5318.5 |
| 20260902112444 | 124 | 292 | 4.0 | 10.0 | 0.00 | 0.00 | 0.00 | 25 | 5318.5 |
| 20260902112242 | 860 | 303 | 7.0 | 9.0 | 0.00 | 0.00 | 0.00 | 26 | 5318.5 |
| 20260902111434 | 196 | 270 | 6.0 | 9.0 | 0.00 | 0.00 | 0.00 | 27 | 5318.5 |
| 20260902111234 | 290 | 315 | 5.0 | 9.0 | 0.00 | 0.00 | 0.00 | 26 | 5318.5 |
| 20260902111031 | 251 | 315 | 9.0 | 9.0 | 0.00 | 0.00 | 0.00 | 27 | 5318.5 |
| 20260902110828 | -30 | 292 | 4.0 | 7.0 | 0.00 | 0.00 | 0.00 | 27 | 5318.5 |
| 20260902110626 | 306 | 315 | 4.0 | 9.0 | 0.00 | 0.00 | 0.00 | 27 | 5318.5 |
| 20260902110424 | -25 | 292 | 6.0 | 10.0 | 0.00 | 0.00 | 0.00 | 26 | 5318.5 |
| 20260902110222 | -29 | 270 | 9.0 | 10.0 | 0.00 | 0.00 | 0.00 | 26 | 5318.5 |
| 20260902110020 | 715 | 270 | 2.0 | 9.0 | 0.00 | 0.00 | 0.00 | 26 | 1799.3 |
| 20260902105818 | -23 | 281 | 8.0 | 9.0 | 0.00 | 0.00 | 0.00 | 26 | 5318.5 |
| 20260902105616 | -14 | 315 | 7.0 | 7.0 | 0.00 | 0.00 | 0.00 | 26 | 5318.5 |
| 20260902105414 | -18 | 292 | 7.0 | 7.0 | 0.00 | 0.00 | 0.00 | 26 | 5318.5 |
| 20260902105211 | -88 | 292 | 4.0 | 6.0 | 0.00 | 0.00 | 0.00 | 26 | 5318.5 |
| 20260902105010 | -12 | 292 | 6.0 | 9.0 | 0.00 | 0.00 | 0.00 | 26 | 403.3 |
| 20260902104807 | 715 | 292 | 6.0 | 9.0 | 0.00 | 0.00 | 0.00 | 26 | 1799.4 |
| 20260902104605 | 715 | 337 | 6.0 | 7.0 | 0.00 | 0.00 | 0.00 | 26 | 4480.2 |
| 20260902104403 | 216 | 292 | 5.0 | 9.0 | 0.00 | 0.00 | 0.00 | 25 | 5318.5 |
| 20260902104201 | 715 | 315 | 5.0 | 9.0 | 0.00 | 0.00 | 0.00 | 26 | 1799.4 |
| 20260902104000 | 768 | 270 | 7.0 | 9.0 | 0.00 | 0.00 | 0.00 | 26 | 5318.5 |
| 20260902103800 | 170 | 315 | 9.0 | 9.0 | 0.00 | 0.00 | 0.00 | 26 | 5318.5 |
| 20260902103605 | 715 | 315 | 1.0 | 6.0 | 0.00 | 0.00 | 0.00 | 26 | 1799.4 |
| 20260902102959 | 327 | 303 | 8.0 | 9.0 | 0.00 | 0.00 | 0.00 | 26 | 5318.5 |
| 20260902102757 | 288 | 292 | 6.0 | 8.0 | 0.00 | 0.00 | 0.00 | 26 | 5318.5 |
| 20260902102554 | -27 | 315 | 4.0 | 8.0 | 0.00 | 0.00 | 0.00 | 26 | 5318.5 |
| 20260902102152 | -21 | 315 | 6.0 | 8.0 | 0.00 | 0.00 | 0.00 | 27 | 5318.5 |
| 20260902101749 | 49 | 315 | 1.0 | 10.0 | 0.00 | 0.00 | 0.00 | 27 | 5318.5 |
| 20260902101546 | -20 | 315 | 8.0 | 10.0 | 0.00 | 0.00 | 0.00 | 27 | 5318.5 |
| 20260902101202 | 714 | 292 | 1.0 | 9.0 | 0.00 | 0.00 | 0.00 | 27 | 4420.7 |
| 20260902100414 | 281 | 315 | 3.0 | 6.0 | 0.00 | 0.00 | 0.00 | 26 | 5318.5 |
| 20260902100210 | 715 | 315 | 2.0 | 7.0 | 0.00 | 0.00 | 0.00 | 26 | 4420.8 |
| 20260902095600 | -31 | 315 | 5.0 | 7.0 | 0.00 | 0.00 | 0.00 | 25 | 5318.5 |
| 20260902094955 | -26 | 315 | 5.0 | 7.0 | 0.00 | 0.00 | 0.00 | 27 | 5318.5 |
| 20260902094753 | -16 | 315 | 4.0 | 7.0 | 0.00 | 0.00 | 0.00 | 26 | 5318.5 |
| 20260902094551 | -20 | 315 | 7.0 | 7.0 | 0.00 | 0.00 | 0.00 | 27 | 5318.5 |
| 20260902093950 | 715 | 315 | 4.0 | 7.0 | 0.00 | 0.00 | 0.00 | 27 | 1799.4 |
| 20260902093742 | -95 | 270 | 5.0 | 6.0 | 0.00 | 0.00 | 0.00 | 27 | 5318.5 |
| 20260902093541 | -14 | 270 | 6.0 | 6.0 | 0.00 | 0.00 | 0.00 | 26 | 5318.5 |
| 20260902093138 | 538 | 315 | 6.0 | 9.0 | 0.00 | 0.00 | 0.00 | 26 | 5318.5 |
| 20260902092937 | 147 | 315 | 6.0 | 7.0 | 0.00 | 0.00 | 0.00 | 26 | 567.2 |
| 20260902092733 | -31 | 315 | 4.0 | 6.0 | 0.00 | 0.00 | 0.00 | 27 | 5318.5 |
| 20260902092532 | 203 | 315 | 4.0 | 5.0 | 0.00 | 0.00 | 0.00 | 28 | 5318.5 |
| 20260902092329 | 164 | 315 | 5.0 | 5.0 | 0.00 | 0.00 | 0.00 | 27 | 5318.5 |
| 20260902091925 | 219 | 315 | 3.0 | 6.0 | 0.00 | 0.00 | 0.00 | 27 | 5318.5 |
| 20260902091721 | 715 | 315 | 4.0 | 6.0 | 0.00 | 0.00 | 0.00 | 27 | 1799.4 |
| 20260902091318 | 32 | 281 | 5.0 | 5.0 | 0.00 | 0.00 | 0.00 | 27 | 5320.2 |
| 20260902091118 | -32 | 315 | 3.0 | 4.0 | 0.00 | 0.00 | 0.00 | 27 | 5318.5 |
| 20260902090711 | -27 | 315 | 3.0 | 5.0 | 0.00 | 0.00 | 0.00 | 28 | 1714.1 |
| 20260902090511 | -17 | 292 | 3.0 | 5.0 | 0.00 | 0.00 | 0.00 | 29 | 5318.5 |
| 20260902090308 | 715 | 270 | 5.0 | 5.0 | 0.00 | 0.00 | 0.00 | 29 | 4420.6 |
| 20260902085903 | -15 | 315 | 2.0 | 3.0 | 0.00 | 0.00 | 0.00 | 29 | 5318.5 |
| 20260902085700 | -65 | 315 | 2.0 | 3.0 | 0.00 | 0.00 | 0.00 | 28 | 5318.5 |
| 20260902084853 | 446 | 303 | 4.0 | 4.0 | 0.00 | 0.00 | 0.00 | 29 | 5318.5 |
| 20260902084652 | 715 | 315 | 3.0 | 5.0 | 0.00 | 0.00 | 0.00 | 29 | 1799.1 |
| 20260902084052 | 155 | 270 | 3.0 | 4.0 | 0.00 | 0.00 | 0.00 | 29 | 5318.5 |
| 20260902083641 | 210 | 315 | 4.0 | 5.0 | 0.00 | 0.00 | 0.00 | 29 | 5318.5 |
| 20260902083438 | 714 | 315 | 4.0 | 5.0 | 0.00 | 0.00 | 0.00 | 29 | 4421.0 |
| 20260902082631 | -24 | 315 | 5.0 | 5.0 | 0.00 | 0.00 | 0.00 | 29 | 5318.5 |
| 20260902082427 | -27 | 315 | 4.0 | 6.0 | 0.00 | 0.00 | 0.00 | 31 | 5318.5 |
| 20260902082226 | 715 | 315 | 3.0 | 6.0 | 0.00 | 0.00 | 0.00 | 30 | 1799.3 |
| 20260902082023 | 715 | 315 | 4.0 | 5.0 | 0.00 | 0.00 | 0.00 | 30 | 4420.8 |
| 20260902081822 | -13 | 315 | 5.0 | 5.0 | 0.00 | 0.00 | 0.00 | 30 | 5318.5 |
| 20260902081215 | -11 | 270 | 7.0 | 7.0 | 0.00 | 0.00 | 0.00 | 30 | 5318.5 |
| 20260902081013 | -19 | 270 | 7.0 | 7.0 | 0.00 | 0.00 | 0.00 | 30 | 5318.5 |
| 20260902080811 | 743 | 315 | 6.0 | 7.0 | 0.00 | 0.00 | 0.00 | 31 | 5318.5 |
| 20260902080407 | -31 | 315 | 4.0 | 6.0 | 0.00 | 0.00 | 0.00 | 31 | 5318.5 |
| 20260902080206 | 906 | 315 | 5.0 | 6.0 | 0.00 | 0.00 | 0.00 | 32 | 5318.5 |
| 20260902075356 | 201 | 315 | 3.0 | 3.0 | 0.00 | 0.00 | 0.00 | 34 | 5318.5 |
| 20260902074748 | 715 | 292 | 1.0 | 3.0 | 0.00 | 0.00 | 0.00 | 35 | 4420.8 |
| 20260902074141 | -30 | 292 | 0.0 | 3.0 | 0.00 | 0.00 | 0.00 | 36 | 5318.5 |
| 20260902073536 | -15 | 315 | 3.0 | 3.0 | 0.00 | 0.00 | 0.00 | 36 | 5318.5 |
| 20260902073334 | -19 | 292 | 0.0 | 4.0 | 0.00 | 0.00 | 0.00 | 37 | 5318.5 |
| 20260902072928 | -13 | 315 | 2.0 | 5.0 | 0.00 | 0.00 | 0.00 | 38 | 5318.5 |
| 20260902072322 | -31 | 315 | 2.0 | 5.0 | 0.00 | 0.00 | 0.00 | 39 | 5318.5 |
| 20260902071918 | 676 | 315 | 2.0 | 4.0 | 0.00 | 0.00 | 0.00 | 40 | 5318.5 |
| 20260902071515 | 122 | 225 | 1.0 | 2.0 | 0.00 | 0.00 | 0.00 | 41 | 5318.5 |
| 20260902071312 | 216 | 337 | 1.0 | 2.0 | 0.00 | 0.00 | 0.00 | 42 | 5318.5 |
| 20260902070908 | 272 | 337 | 0.0 | 3.0 | 0.00 | 0.00 | 0.00 | 42 | 1714.1 |
| 20260902070706 | 715 | 337 | 1.0 | 5.0 | 0.00 | 0.00 | 0.00 | 42 | 1799.4 |
| 20260902070504 | 327 | 315 | 3.0 | 5.0 | 0.00 | 0.00 | 0.00 | 42 | 5318.5 |
| 20260902070301 | 715 | 315 | 4.0 | 6.0 | 0.00 | 0.00 | 0.00 | 42 | 1799.4 |